Вернуться в каталог

STARLINK-38209

АктивенСвязьSSO
NORAD 100383·PAYLOAD·🇺🇸 United States

Запущен Aug 19, 2026 с Vandenberg Space Force Base

Loading…

Ближайшие Пролёты (ближайшие 24 часа)

TLE

СвежийSource: Space-Track

Эпоха: Sep 14, 2026, 20:23 UTC

1 A0383U 26190N   26257.84969838 -.00298512  00000-0 -24461-2 0  9997
2 A0383  97.2836 111.8896 0001348 109.6093 250.5315 15.71287395  5452

Отслеживайте STARLINK-38209 в реальном времени с AllMySat

Download on the App Store